Lid_Strength_Index
12 12 11 12 12 12 13 13 13 11 11 10 8 9 7 7 6 6 6 6 5 5 5 4 4 4 3 3 3 2 2 2 2 2 2 2 2 2 2 1 1 1 1 2
14 11 11 13 11 11 12 11 12 11 12 7 8 7 7 7 6 7 6 6 5 5 4 4 4 4 3 3 3 2 3 2 2 2 2 2 2 2 2 1 1 1 2 2
17 12 13 16 12 12 11 10 10 13 10 8 9 8 8 7 6 6 6 5 5 5 4 4 4 3 3 3 3 2 3 2 2 2 2 2 2 2 2 2 2 2 2 2
17 15 21 12 9 10 11 9 10 8 9 8 8 7 7 6 6 6 5 5 5 4 4 4 4 3 3 3 3 3 3 2 2 2 2 2 2 2 2 2 3 2 3 3
18 18 15 13 11 12 13 13 10 9 9 9 7 7 8 6 5 6 5 4 4 3 4 5 4 3 3 3 3 3 3 3 2 2 2 2 2 2 2 2 2 2 2 3
16 19 21 14 10 9 9 16 9 9 8 9 8 12 10 6 5 5 4 4 4 3 4 4 4 3 3 4 3 4 3 2 2 2 2 2 2 2 3 2 2 2 2 2
16 17 15 11 9 8 16 15 9 8 8 8 10 8 7 6 5 5 4 4 3 3 4 4 3 3 4 4 4 3 2 2 2 2 2 2 2 2 2 3 2 3 2 3
15 17 19 10 10 13 10 8 8 7 7 7 7 6 6 5 5 5 4 4 3 3 4 4 3 3 4 4 3 3 2 2 2 2 2 2 2 2 2 2 3 3 2 3
13 14 9 8 9 8 8 8 8 7 6 6 6 6 6 6 5 4 4 4 3 3 4 4 3 2 3 3 3 3 2 2 2 2 2 2 2 3 2 3 3 3 3 3
12 10 9 8 8 8 7 7 7 6 6 5 6 6 6 5 5 5 4 4 4 4 4 4 4 2 2 2 2 3 3 3 3 3 2 2 2 2 2 3 3 3 3 3
11 9 8 7 7 7 7 7 6 6 6 6 6 6 6 6 6 5 4 4 3 4 4 4 4 3 2 2 2 3 2 3 2 2 3 3 4 4 2 3 3 3 3 2
12 8 8 8 6 6 7 7 7 6 6 5 4 5 5 6 6 5 5 4 4 4 4 4 4 2 2 2 2 2 3 3 3 3 2 3 7 8 13 12 12 9 7 3
8 6 6 6 6 6 7 7 6 6 5 5 4 4 5 6 5 6 4 3 4 4 3 4 4 4 2 2 2 2 3 3 3 3 2 3 4 6 7 7 12 12 9 9
5 6 7 6 7 6 6 6 6 5 4 4 4 4 4 5 5 5 4 4 3 3 3 3 4 4 3 2 2 2 3 7 3 3 3 3 3 4 5 5 6 6 10 9
6 6 5 5 5 5 5 6 7 6 5 4 4 4 4 5 5 4 4 4 3 3 3 3 4 4 4 3 2 2 2 2 2 3 3 4 3 3 3 3 4 5 7 10
5 5 5 5 5 5 5 5 5 5 4 4 4 5 5 4 5 4 5 5 5 4 3 3 3 3 4 4 3 2 2 6 5 2 4 3 3 3 3 4 4 4 4 4
7 7 6 6 6 5 5 5 5 5 4 4 4 4 5 4 4 4 4 5 4 4 3 4 4 2 3 4 4 3 2 4 7 3 3 3 4 3 3 3 4 5 4 3
6 6 5 5 5 5 5 5 5 5 5 4 4 3 4 5 5 5 5 3 3 4 4 3 5 2 2 4 4 3 3 2 3 3 3 3 3 4 3 4 4 4 5 5
5 5 4 5 5 5 5 6 5 6 5 5 5 4 4 4 5 5 5 4 4 5 5 4 9 5 4 7 7 3 3 3 3 3 3 6 5 3 3 3 3 3 4 5
4 4 4 4 5 5 6 5 5 6 6 6 6 6 6 6 5 5 5 4 3 4 5 5 6 6 5 8 11 4 3 2 3 3 3 3 4 4 3 6 3 3 3 4
4 4 4 4 5 5 6 6 6 7 7 6 7 7 7 7 7 7 6 8 7 7 8 8 6 8 6 10 7 3 3 3 3 3 3 4 4 4 4 4 3 3 3 4
4 5 5 4 4 5 5 6 6 7 7 7 7 8 8 8 8 7 7 8 8 12 8 6 6 14 12 13 5 3 3 2 3 3 3 3 4 4 5 5 4 3 3 3
4 4 4 4 4 4 4 4 6 7 7 7 7 8 8 8 8 10 10 8 8 9 8 5 10 13 15 7 6 4 2 2 3 3 4 4 4 4 4 5 4 4 4 4
3 3 3 4 4 4 6 6 5 6 6 7 8 8 8 9 9 9 9 10 12 11 8 10 11 13 14 6 5 5 3 3 3 3 3 8 4 3 4 4 5 4 5 7
3 3 3 4 5 6 6 5 6 6 7 7 8 7 8 8 9 9 9 10 11 10 7 11 12 12 7 7 5 4 4 3 4 4 3 3 3 3 3 3 3 4 4 3
3 4 4 3 4 4 6 6 6 7 7 7 8 8 8 8 9 10 10 11 11 11 10 9 10 10 9 9 8 6 6 4 5 3 4 4 3 3 3 3 3 4 4 4
4 4 3 3 3 4 4 6 7 7 7 7 8 7 8 9 9 10 11 11 12 12 11 11 11 12 11 11 10 9 9 8 11 9 9 9 9 9 8 5 3 3 3 3